sat.trackr.live / text

‹ back to catalog

STARLINK-37313

NORAD 68790 · 2026-086AA

PAYLOAD ACTIVE UNKNOWN

§ Identity

Operator
Country
US
Launch date
2026-04-19
Launch site
AFWTR
Launch vehicle
Mass (kg)
RCS (m²)

Purposes: comms

External: N2YO · Heavens-Above · Gunter

§ Orbital elements

Epoch: 2026-09-19T08:17:32.871840Z

Period
93.91 min
Inclination
97.2804°
Eccentricity
0.0001933
Mean motion
15.33461109 rev/d
Perigee alt
464.2 km
Apogee alt
466.8 km
Semi-major
6,843.6 km
B*
6.2611e-4
RAAN
298.6386°
Arg perigee
91.7028°
Mean anomaly
268.4436°
Rev number
2,356

§ Raw data

STARLINK-373131 68790U 26086AA  26262.34551935  .00020203  00000+0  62611-3 0  99902 68790  97.2804 298.6386 0001933  91.7028 268.4436 15.33461109 23569

JSON: /api/v1/satellites/68790 · /tle

For live sub-satellite position, see the globe view (requires WebGL).

§ Visibility from observer

Set your observer location to see the next 7 days of passes ≥ 10°. The values pass through the URL so the page stays shareable.

No JS? Fill the form by hand. The geolocation button needs JavaScript.